DPOT41 YAMB-YBCG

Flight info

Callsign DPOT41
Flight time N/A
Altitude 5000
Route YAMB DCT YBCG DCT YAMB
Aircraft F35/M-SDFGHIRTUY/L

Departure

Time 2026-04-17 08:05
Airport RAAF Base Amberley (YAMB)

Arrival

Time N/A
Airport Gold Coast Airport (YBCG)
Time Latitude Longitude Altitude Speed Heading
2026-04-17 08:05 -27.71359 152.75935 340 ft 644 kts 140°
2026-04-17 08:05 -27.74477 152.79610 743 ft 656 kts 119°
2026-04-17 08:05 -27.76701 152.84162 880 ft 667 kts 117°
2026-04-17 08:06 -27.78927 152.88756 883 ft 668 kts 118°
2026-04-17 08:06 -27.81572 152.92987 614 ft 669 kts 126°
2026-04-17 08:06 -27.84381 152.97183 617 ft 669 kts 127°
2026-04-17 08:06 -27.87186 153.01369 625 ft 667 kts 126°
2026-04-17 08:07 -27.89985 153.05567 779 ft 665 kts 126°
2026-04-17 08:07 -27.92777 153.09748 752 ft 669 kts 126°
2026-04-17 08:07 -27.95588 153.13968 667 ft 669 kts 126°
2026-04-17 08:07 -27.98370 153.18148 1521 ft 629 kts 127°
2026-04-17 08:08 -28.00366 153.22564 832 ft 628 kts 83°
2026-04-17 08:08 -28.01647 153.27148 1635 ft 656 kts 121°
2026-04-17 08:08 -28.04136 153.31623 1284 ft 676 kts 126°
2026-04-17 08:08 -28.07169 153.35568 1236 ft 675 kts 136°
2026-04-17 08:09 -28.10778 153.39003 1126 ft 677 kts 150°
2026-04-17 08:09 -28.15294 153.39850 1721 ft 660 kts 206°
2026-04-17 08:09 -28.17181 153.35723 2209 ft 646 kts 286°
2026-04-17 08:09 -28.13829 153.33469 2346 ft 634 kts 26°
2026-04-17 08:10 -28.13617 153.37618 2441 ft 655 kts 151°
2026-04-17 08:10 -28.17363 153.36020 2485 ft 647 kts 253°
2026-04-17 08:10 -28.15473 153.32248 2556 ft 623 kts 352°
2026-04-17 08:10 -28.12584 153.35093 2663 ft 643 kts 92°
2026-04-17 08:11 -28.15228 153.39049 3020 ft 670 kts 137°
2026-04-17 08:11 -28.18669 153.42680 1505 ft 682 kts 135°
2026-04-17 08:11 -28.21944 153.46408 1118 ft 657 kts 133°
2026-04-17 08:11 -28.25052 153.50203 1146 ft 647 kts 101°
2026-04-17 08:12 -28.22104 153.52865 635 ft 631 kts 359°
2026-04-17 08:12 -28.17847 153.51502 88 ft 647 kts 330°
2026-04-17 08:12 -28.14159 153.49227 2708 ft 509 kts 336°
2026-04-17 08:12 -28.12018 153.45669 5163 ft 624 kts 284°
2026-04-17 08:13 -28.10578 153.40889 4714 ft 635 kts 302°
2026-04-17 08:13 -28.07774 153.37114 4872 ft 626 kts 309°
2026-04-17 08:13 -28.04990 153.33312 4812 ft 626 kts 309°
2026-04-17 08:14 -27.99502 153.25643 4875 ft 626 kts 306°
2026-04-17 08:14 -27.96914 153.21693 4861 ft 625 kts 306°
2026-04-17 08:14 -27.94341 153.17780 4853 ft 626 kts 306°
2026-04-17 08:14 -27.91744 153.13830 4829 ft 625 kts 306°
2026-04-17 08:15 -27.89147 153.09881 4915 ft 624 kts 306°
2026-04-17 08:15 -27.87426 153.07270 4976 ft 625 kts 306°
2026-04-17 08:15 -27.83943 153.01992 5089 ft 625 kts 306°
2026-04-17 08:15 -27.82226 152.99391 5135 ft 624 kts 306°
2026-04-17 08:16 -27.78775 152.94170 5245 ft 624 kts 306°
2026-04-17 08:16 -27.76179 152.90247 5323 ft 624 kts 306°
2026-04-17 08:16 -27.74425 152.87600 5381 ft 624 kts 306°
2026-04-17 08:16 -27.70968 152.82384 5522 ft 625 kts 306°
2026-04-17 08:17 -27.68360 152.78453 5656 ft 624 kts 306°
2026-04-17 08:17 -27.65759 152.74537 5840 ft 624 kts 306°
2026-04-17 08:17 -27.63139 152.70597 4957 ft 639 kts 306°
2026-04-17 08:17 -27.60476 152.66594 3328 ft 619 kts 306°
2026-04-17 08:18 -27.57463 152.65425 3128 ft 440 kts 44°
2026-04-17 08:18 -27.57395 152.68237 2482 ft 364 kts 132°
2026-04-17 08:18 -27.59327 152.69327 1313 ft 252 kts 159°
2026-04-17 08:18 -27.60650 152.69875 523 ft 180 kts 158°
2026-04-17 08:19 -27.61699 152.70324 205 ft 142 kts 158°
2026-04-17 08:19 -27.62296 152.70582 124 ft 141 kts 157°
2026-04-17 08:19 -27.63119 152.70949 99 ft 106 kts 158°
2026-04-17 08:19 -27.63425 152.71029 95 ft 13 kts 284°
2026-04-17 08:20 -27.63393 152.70916 96 ft 16 kts 287°